User: anonymous   Login
Location: Unspecified
(0.0000°N, 0.0000°E)
Time: 21:16:09
(UTC+00:00)
Language:

ISS - Orbit

View from above orbital plane
View from above orbital plane
View from above satellite
View from above satellite

Ground track
Ground track

The orbit data is extracted from the following two-line orbital elements,

1 25544U 98067A   22222.68618448 -.00204131  00000-0 -36532-2 0  9999
2 25544  51.6393  66.6071 0006153 109.9655  12.9635 15.50046744353637
Epoch (UTC): 10 August 2022 16:28:06
Eccentricity: 0.0006153
inclination: 51.6393°
perigee height: 412 km
apogee height: 421 km
right ascension of ascending node: 66.6071°
argument of perigee: 109.9655°
revolutions per day: 15.50046744
mean anomaly at epoch: 12.9635°
orbit number at epoch: 35363

The dashed part of the orbit path shows where the satellite is in the earth's shadow,  

DLR